EB3EFU-2 Weather Reports


Display with metric or nautical units.
time (UTC)temp
F
wind
direction
speed
MPH
gust
MPH
rain 1hr
in
rain 24hr
in
rain mn
in
humidity
%
barometer
mb
20260510053601 51 201 1.0 4.0 0.00 0.66 0.02 96 1011.4
20260510052722 51 212 1.0 3.0 0.00 0.66 0.02 96 1011.2
20260510051801 51 103 1.0 2.0 0.00 0.66 0.02 96 1010.8
20260510050901 51 135 1.0 3.0 0.00 0.66 0.02 96 1011.1
20260510050001 51 153 1.0 3.0 0.00 0.66 0.02 96 1011.1
20260510045401 52 118 1.0 3.0 0.00 0.66 0.02 97 1011.1
20260510044501 52 100 1.0 3.0 0.00 0.66 0.02 97 1011.3
20260510043601 51 91 2.0 3.0 0.00 0.66 0.02 96 1011.2
20260510042701 51 69 2.0 4.0 0.00 0.66 0.02 96 1011.2
20260510041801 52 62 2.0 4.0 0.00 0.66 0.02 96 1011.1
20260510040901 52 83 2.0 3.0 0.00 0.66 0.02 96 1011.2
20260510040022 52 92 2.0 3.0 0.00 0.66 0.02 96 1011.2
20260510035401 52 99 2.0 3.0 0.00 0.66 0.02 96 1011.3
20260510034501 53 58 1.0 3.0 0.00 0.66 0.02 96 1011.4
20260510033622 53 46 2.0 3.0 0.00 0.66 0.02 96 1011.1
20260510032701 52 105 1.0 3.0 0.00 0.66 0.02 96 1011.2
20260510031801 53 191 0.0 2.0 0.00 0.66 0.02 96 1011.2
20260510030901 53 154 1.0 3.0 0.00 0.66 0.02 96 1011.3
20260510030001 53 111 1.0 3.0 0.00 0.66 0.02 96 1011.3
20260510025402 53 92 1.0 3.0 0.00 0.66 0.02 96 1011.5
20260510024502 53 180 1.0 3.0 0.00 0.66 0.02 96 1011.6
20260510023601 53 115 1.0 3.0 0.00 0.66 0.02 96 1011.5
20260510022702 54 92 1.0 3.0 0.00 0.66 0.02 96 1011.3
20260510021802 54 113 1.0 3.0 0.00 0.66 0.02 96 1011.4
20260510020902 54 100 1.0 2.0 0.00 0.66 0.02 96 1011.4
20260510020002 54 109 2.0 3.0 0.00 0.66 0.02 96 1011.2
20260510015401 54 97 2.0 3.0 0.00 0.66 0.02 95 1011.3
20260510014501 54 81 2.0 3.0 0.00 0.66 0.02 96 1011.2
20260510013602 55 126 1.0 2.0 0.00 0.66 0.02 96 1011.4
20260510012701 55 120 1.0 3.0 0.00 0.66 0.02 96 1011.6
20260510011802 55 107 1.0 3.0 0.00 0.66 0.02 95 1011.6
20260510010901 55 109 1.0 3.0 0.00 0.66 0.02 95 1011.6
20260510010002 55 103 1.0 3.0 0.00 0.66 0.02 95 1011.8
20260510005402 55 101 1.0 3.0 0.00 0.66 0.02 95 1011.9
20260510004502 56 84 1.0 2.0 0.00 0.66 0.02 95 1012.0
20260510003602 56 89 1.0 2.0 0.00 0.66 0.02 95 1012.2
20260510002702 56 161 0.0 3.0 0.00 0.66 0.02 95 1012.3
20260510001802 56 285 1.0 4.0 0.01 0.66 0.02 95 1012.6
20260510000923 56 98 1.0 4.0 0.01 0.66 0.02 95 1012.6
20260510000002 56 290 1.0 4.0 0.01 0.66 0.02 95 1012.8
20260509235401 56 319 1.0 4.0 0.01 0.66 0.02 95 1013.0
20260509234502 56 293 1.0 3.0 0.00 0.65 0.02 95 1013.2
20260509233602 56 33 1.0 3.0 0.00 0.65 0.02 95 1013.2
20260509232702 56 104 1.0 4.0 0.01 0.65 0.02 95 1013.3
20260509231802 56 113 1.0 3.0 0.01 0.65 0.02 95 1013.3
20260509230902 56 125 1.0 3.0 0.01 0.65 0.02 95 1013.3
20260509230023 56 260 1.0 3.0 0.02 0.65 0.02 95 1013.3
20260509225402 56 135 1.0 3.0 0.02 0.65 0.02 95 1013.5
20260509224502 56 124 1.0 4.0 0.03 0.65 0.02 95 1013.3
20260509223602 56 105 1.0 4.0 0.03 0.65 0.02 95 1013.4
20260509222702 56 119 1.0 4.0 0.03 0.65 0.01 94 1013.2
20260509221802 56 118 2.0 4.0 0.04 0.64 0.01 94 1013.4
20260509220902 56 32 2.0 4.0 0.04 0.64 0.00 94 1013.3
20260509220024 56 141 1.0 3.0 0.04 0.63 0.00 94 1013.3
20260509215402 56 142 1.0 4.0 0.05 0.63 0.63 94 1013.0
20260509214502 56 158 1.0 4.0 0.04 0.62 0.62 94 1013.2
20260509213623 56 115 2.0 3.0 0.04 0.62 0.62 94 1013.2
20260509212702 56 77 1.0 4.0 0.04 0.61 0.61 94 1013.3
20260509211823 56 166 2.0 6.0 0.04 0.61 0.61 94 1013.2
20260509210902 56 68 2.0 5.0 0.04 0.60 0.60 93 1013.3
20260509210002 56 216 2.0 5.0 0.03 0.59 0.59 93 1013.0
20260509205423 56 136 2.0 5.0 0.03 0.59 0.59 93 1013.1
20260509204502 56 165 2.0 5.0 0.03 0.59 0.59 93 1013.1
20260509203602 56 114 3.0 6.0 0.02 0.58 0.58 92 1012.9
20260509202702 56 91 2.0 6.0 0.02 0.57 0.57 92 1012.6
20260509201802 56 276 2.0 7.0 0.01 0.56 0.56 92 1011.9
20260509200923 56 274 3.0 11.0 0.02 0.56 0.56 91 1011.6
20260509200023 57 305 3.0 9.0 0.04 0.56 0.56 91 1011.5
20260509195402 58 338 4.0 9.0 0.06 0.56 0.56 92 1011.5
20260509194502 58 360 3.0 12.0 0.08 0.56 0.56 93 1011.2
20260509193602 58 15 5.0 12.0 0.11 0.56 0.56 92 1010.6
20260509192702 57 16 5.0 20.0 0.15 0.56 0.56 93 1009.6
20260509191802 57 26 7.0 13.0 0.17 0.55 0.55 93 1009.5
20260509190902 57 44 7.0 13.0 0.18 0.54 0.54 93 1010.2
20260509190002 57 47 6.0 10.0 0.20 0.52 0.52 93 1010.7
20260509185402 57 49 5.0 8.0 0.20 0.50 0.50 92 1011.1
20260509184502 57 44 3.0 6.0 0.22 0.48 0.48 92 1011.4
20260509183602 57 40 2.0 4.0 0.22 0.44 0.44 91 1011.9
20260509182702 57 38 3.0 5.0 0.22 0.41 0.41 91 1011.9
20260509181802 57 78 2.0 5.0 0.24 0.38 0.38 90 1012.1
20260509180902 58 144 1.0 4.0 0.26 0.36 0.36 90 1012.5
20260509180002 58 151 2.0 4.0 0.26 0.32 0.32 90 1012.7
20260509175402 59 162 2.0 4.0 0.26 0.30 0.30 89 1012.9
20260509174502 60 150 1.0 3.0 0.24 0.26 0.26 88 1012.6
20260509173602 60 164 1.0 3.0 0.22 0.22 0.22 87 1012.3
20260509172702 60 158 1.0 3.0 0.18 0.18 0.18 86 1012.3
20260509171823 61 99 1.0 3.0 0.14 0.14 0.14 88 1012.3
20260509170902 62 137 1.0 3.0 0.10 0.10 0.10 89 1012.4
20260509170023 62 95 2.0 5.0 0.07 0.07 0.07 88 1012.1
20260509165402 62 87 3.0 6.0 0.04 0.04 0.04 87 1012.0
20260509164502 62 87 3.0 6.0 0.02 0.02 0.02 86 1012.1
20260509163602 63 72 4.0 8.0 0.00 0.00 0.00 85 1011.7
20260509162702 63 73 4.0 8.0 0.00 0.00 0.00 83 1011.8
20260509161802 63 56 5.0 11.0 0.00 0.00 0.00 83 1011.4
20260509160902 63 47 5.0 10.0 0.00 0.00 0.00 82 1011.3
20260509160002 63 53 5.0 9.0 0.00 0.00 0.00 82 1011.0
20260509155402 63 61 3.0 9.0 0.00 0.00 0.00 81 1011.3
20260509154502 63 64 5.0 9.0 0.00 0.00 0.00 81 1011.5
20260509153602 63 79 3.0 6.0 0.00 0.00 0.00 80 1011.7
20260509152723 63 53 4.0 7.0 0.00 0.00 0.00 80 1012.0
20260509151823 63 37 3.0 6.0 0.00 0.00 0.00 80 1011.8
20260509150902 64 42 3.0 6.0 0.00 0.00 0.00 80 1012.4
20260509150002 63 36 3.0 5.0 0.00 0.00 0.00 80 1012.5
20260509145403 63 33 3.0 7.0 0.00 0.00 0.00 80 1012.6
20260509144503 63 45 4.0 8.0 0.00 0.00 0.00 80 1012.6
20260509143602 63 48 6.0 11.0 0.00 0.00 0.00 80 1012.4
20260509142723 64 23 4.0 9.0 0.00 0.00 0.00 79 1012.5
20260509141802 64 34 4.0 11.0 0.00 0.00 0.00 80 1012.4
20260509140923 63 45 7.0 14.0 0.00 0.00 0.00 81 1012.5
20260509140023 64 57 7.0 14.0 0.00 0.00 0.00 81 1012.1
20260509135403 64 66 8.0 13.0 0.00 0.00 0.00 80 1012.2
20260509134502 64 56 7.0 13.0 0.00 0.00 0.00 80 1012.3
20260509133603 64 53 7.0 14.0 0.00 0.00 0.00 79 1012.5
20260509132703 64 68 6.0 13.0 0.00 0.00 0.00 80 1012.6
20260509131803 64 60 6.0 13.0 0.00 0.00 0.00 79 1013.0
20260509130923 64 73 6.0 13.0 0.00 0.00 0.00 80 1013.2
20260509130003 65 65 5.0 11.0 0.00 0.00 0.00 78 1013.0
20260509125403 65 81 5.0 9.0 0.00 0.00 0.00 79 1013.0
20260509124502 65 57 5.0 12.0 0.00 0.00 0.00 77 1013.2
20260509123603 65 59 6.0 12.0 0.00 0.00 0.00 75 1013.4
20260509122724 65 83 4.0 9.0 0.00 0.00 0.00 73 1013.6
20260509121802 65 75 4.0 9.0 0.00 0.00 0.00 75 1013.9
20260509120903 65 54 5.0 10.0 0.00 0.00 0.00 78 1014.0
20260509120003 65 76 4.0 9.0 0.00 0.00 0.00 76 1013.8
20260509115403 65 52 5.0 12.0 0.00 0.00 0.00 78 1013.8
20260509114503 64 49 7.0 14.0 0.00 0.00 0.00 80 1013.6
20260509113603 64 47 8.0 13.0 0.00 0.00 0.00 79 1013.7
20260509112703 65 55 7.0 13.0 0.00 0.00 0.00 79 1013.7
20260509111803 65 63 7.0 15.0 0.00 0.00 0.00 79 1013.7
20260509110903 65 62 6.0 16.0 0.00 0.00 0.00 79 1014.1
20260509110003 64 58 7.0 17.0 0.00 0.00 0.00 78 1014.1
20260509105403 66 60 6.0 14.0 0.00 0.00 0.00 76 1013.8
20260509104503 65 63 6.0 15.0 0.00 0.00 0.00 76 1014.0
20260509103603 65 47 8.0 15.0 0.00 0.00 0.00 78 1014.2
20260509102724 65 43 8.0 15.0 0.00 0.00 0.00 78 1014.4
20260509101803 64 58 6.0 13.0 0.00 0.00 0.00 80 1014.5
20260509100903 64 59 7.0 18.0 0.00 0.00 0.00 80 1014.4
20260509100003 65 63 5.0 13.0 0.00 0.00 0.00 79 1014.1
20260509095403 64 46 4.0 9.0 0.00 0.00 0.00 79 1014.1
20260509094503 64 12 4.0 8.0 0.00 0.00 0.00 79 1014.1
20260509093603 64 25 4.0 9.0 0.00 0.00 0.00 80 1013.9
20260509092724 64 26 4.0 8.0 0.00 0.00 0.00 79 1014.0
20260509091803 63 15 4.0 9.0 0.00 0.00 0.00 80 1013.6
20260509090903 62 356 6.0 10.0 0.00 0.00 0.00 81 1013.6
20260509090024 62 358 6.0 10.0 0.00 0.00 0.00 82 1013.6
20260509085403 62 3 5.0 9.0 0.00 0.00 0.00 80 1013.8
20260509084503 62 353 6.0 10.0 0.00 0.00 0.00 80 1013.8
20260509083624 62 349 5.0 9.0 0.00 0.00 0.00 79 1014.0
20260509082701 62 28 3.0 6.0 0.00 0.00 0.00 78 1014.1
20260509081801 61 6 3.0 6.0 0.00 0.00 0.00 78 1014.2
20260509080901 61 11 3.0 6.0 0.00 0.00 0.00 79 1014.1
20260509080001 61 58 3.0 6.0 0.00 0.00 0.00 80 1014.4
20260509075401 60 29 2.0 6.0 0.00 0.00 0.00 80 1014.2
20260509074501 60 58 1.0 4.0 0.00 0.00 0.00 80 1014.5
20260509073601 59 39 1.0 3.0 0.00 0.00 0.00 82 1014.5
20260509072722 58 8 2.0 4.0 0.00 0.00 0.00 83 1014.5
20260509071801 58 350 2.0 4.0 0.00 0.00 0.00 84 1014.5
20260509070901 58 290 1.0 4.0 0.00 0.00 0.00 84 1014.3
20260509070001 58 324 1.0 4.0 0.00 0.00 0.00 85 1014.6
20260509065401 58 356 1.0 4.0 0.00 0.00 0.00 86 1014.6
20260509064501 58 1 3.0 4.0 0.00 0.00 0.00 87 1014.3
20260509063601 58 16 2.0 4.0 0.00 0.00 0.00 87 1014.4
20260509062701 58 359 1.0 4.0 0.00 0.00 0.00 88 1014.4
20260509061801 58 21 1.0 6.0 0.00 0.00 0.00 89 1014.6
20260509060901 57 145 2.0 5.0 0.00 0.00 0.00 90 1014.4
20260509060001 57 140 2.0 6.0 0.00 0.00 0.00 90 1014.5
20260509055422 57 131 2.0 6.0 0.00 0.00 0.00 90 1014.7
20260509054522 57 81 1.0 4.0 0.00 0.00 0.00 91 1014.4